Mumbai, India

3:02 PM IST on June 26, 2017 (GMT +0530)
Chhatrapati Shivaji International

Weather History for VABB - September, 2013

Change the Weather History Date:

Tuesday, September 17, 2013

  Actual Average Record
Temperature  
Mean Temperature 80 °F -  
Max Temperature 84 °F 87 °F 91 °F (2003)
Min Temperature 77 °F 76 °F 73 °F (2016)
Cooling Degree Days 16    
Growing Degree Days 30 (Base 50)    
Moisture  
Dew Point 76 °F    
Average Humidity 83    
Maximum Humidity 94    
Minimum Humidity 66    
Precipitation  
Precipitation 0.16 in - - ()
Sea Level Pressure  
Sea Level Pressure 29.63 in    
Wind  
Wind Speed 4 mph ()    
Max Wind Speed 9 mph    
Max Gust Speed -    
Visibility 1.8 miles    
Events Rain , Thunderstorm    
Averages and records for this station are not official NWS values.
T = Trace of Precipitation, MM = Missing Value Source: Averaged Metar Reports

Daily Weather History Graph

Daily Weather History Graph

Search for Another Location

Airport or City:

Trip Planner

Search our weather history database for the weather conditions in past years. The results will help you decide how hot, cold, wet, or windy it might be!

Date:

Astronomy

Sep. 17, 2013 Rise Set
Actual Time 6:26 AM IST 6:39 PM IST
Civil Twilight 6:04 AM IST 7:01 PM IST
Nautical Twilight 5:39 AM IST 7:26 PM IST
Astronomical Twilight 5:13 AM IST 7:52 PM IST
Moon 4:58 PM IST (9/17) 4:05 AM IST (9/17)
Length of Visible Light 12h 56m
Length of Day
12h 12m
Waxing Gibbous, 94% of the Moon is Illuminated
Sep 17
Waxing Gibbous
Sep 19
Full
Sep 27
Last Quarter
Oct 5
New
Oct 12
First Quarter

Hourly Weather History & Observations

Time (IST) Temp. Heat Index Dew Point Humidity Pressure Visibility Wind Dir Wind Speed Gust Speed Precip Events Conditions
12:10 AM 82.4 °F 90.9 °F 77.0 °F 84% 29.68 in 2.5 mi NW 4.6 mph - N/A   Haze
12:40 AM 82.4 °F 90.9 °F 77.0 °F 84% 29.68 in 2.5 mi NNW 3.5 mph - N/A   Haze
1:10 AM 82.4 °F 90.9 °F 77.0 °F 84% 29.65 in 2.5 mi NNE 4.6 mph - N/A   Haze
1:40 AM 82.4 °F 90.9 °F 77.0 °F 84% 29.65 in 2.2 mi NE 4.6 mph - N/A   Haze
2:10 AM 82.4 °F 90.9 °F 77.0 °F 84% 29.65 in 2.2 mi NE 6.9 mph - N/A   Haze
2:30 AM 79 °F - 76 °F 86% 29.67 in 1 mi Calm Calm - -   Haze
2:40 AM 80.6 °F 87.1 °F 77.0 °F 89% 29.65 in 2.2 mi East 5.8 mph - N/A   Haze
3:10 AM 80.6 °F 87.1 °F 77.0 °F 89% 29.62 in 2.2 mi SSW 5.8 mph - N/A   Haze
3:40 AM 80.6 °F 87.1 °F 77.0 °F 89% 29.62 in 2.2 mi SSW 3.5 mph - N/A   Haze
4:10 AM 80.6 °F 87.1 °F 77.0 °F 89% 29.62 in 2.2 mi WNW 3.5 mph - N/A   Haze
4:40 AM 80.6 °F 87.1 °F 77.0 °F 89% 29.62 in 2.2 mi NE 3.5 mph - N/A   Haze
5:10 AM 80.6 °F 87.1 °F 77.0 °F 89% 29.62 in 2.2 mi Calm Calm - N/A   Haze
5:30 AM 79 °F - 76 °F 86% 29.63 in 1 mi Calm Calm - -   Haze
5:40 AM 80.6 °F 88.1 °F 78.8 °F 94% 29.62 in 2.2 mi ESE 4.6 mph - N/A   Haze
6:40 AM 80.6 °F 87.1 °F 77.0 °F 89% 29.65 in 1.6 mi SSE 3.5 mph - N/A   Light Drizzle
7:10 AM 80.6 °F 88.1 °F 78.8 °F 94% 29.62 in 1.4 mi SE 3.5 mph - N/A   Haze
7:40 AM 80.6 °F 88.1 °F 78.8 °F 94% 29.65 in 1.1 mi NNE 5.8 mph - N/A Rain Rain
8:30 AM 78 °F - 75 °F 88% 29.71 in 1 mi Calm Calm - - Rain , Thunderstorm Thunderstorms and Rain
9:10 AM 77.0 °F - 75.2 °F 94% 29.68 in 1.1 mi Variable 4.6 mph - N/A Rain , Thunderstorm Light Thunderstorms and Rain
9:40 AM 77.0 °F - 75.2 °F 94% 29.71 in 1.2 mi SSW 4.6 mph - N/A Rain , Thunderstorm Light Thunderstorms and Rain
10:40 AM 78.8 °F - 77.0 °F 94% 29.68 in 1.4 mi NW 4.6 mph - N/A Rain Light Rain
11:10 AM 80.6 °F 86.2 °F 75.2 °F 84% 29.68 in 1.5 mi WNW 5.8 mph - N/A   Haze
11:30 AM 80 °F - 76 °F 84% 29.70 in 1 mi NW 3.5 mph - - Rain Light Drizzle
11:40 AM 80.6 °F 87.1 °F 77.0 °F 89% 29.68 in 1.6 mi NNE 5.8 mph - N/A   Haze
12:40 PM 84.2 °F 94.1 °F 77.0 °F 79% 29.65 in 1.9 mi NNE 5.8 mph - N/A   Haze
1:10 PM 82.4 °F 90.9 °F 77.0 °F 84% 29.62 in 1.9 mi NE 5.8 mph - N/A   Haze
1:40 PM 84.2 °F 94.1 °F 77.0 °F 79% 29.62 in 1.9 mi North 6.9 mph - N/A   Haze
2:10 PM 84.2 °F 92.3 °F 75.2 °F 74% 29.59 in 1.9 mi NNW 5.8 mph - N/A   Haze
2:30 PM 84 °F - 74 °F 66% 29.60 in 1 mi Calm Calm - -   Haze
2:40 PM 84.2 °F 90.9 °F 73.4 °F 70% 29.59 in 1.9 mi NNW 9.2 mph - N/A   Haze
3:10 PM 84.2 °F 92.3 °F 75.2 °F 74% 29.56 in 1.9 mi NNW 5.8 mph - N/A   Haze
3:40 PM 84.2 °F 92.3 °F 75.2 °F 74% 29.56 in 1.9 mi North 5.8 mph - N/A   Haze
4:10 PM 84.2 °F 90.9 °F 73.4 °F 70% 29.56 in 1.9 mi NNW 8.1 mph - N/A   Haze
4:40 PM 84.2 °F 92.3 °F 75.2 °F 74% 29.56 in 1.9 mi NNW 8.1 mph - N/A   Haze
5:10 PM 84.2 °F 92.3 °F 75.2 °F 74% 29.56 in 1.9 mi WNW 4.6 mph - N/A   Haze
5:30 PM 84 °F - 76 °F 71% 29.58 in 1 mi NW 4.6 mph - -   Haze
5:40 PM 84.2 °F 94.1 °F 77.0 °F 79% 29.56 in 1.9 mi NW 6.9 mph - N/A   Haze
6:10 PM 84.2 °F 94.1 °F 77.0 °F 79% 29.56 in 1.9 mi WNW 8.1 mph - N/A   Haze
6:40 PM 82.4 °F 90.9 °F 77.0 °F 84% 29.59 in 1.9 mi NNW 5.8 mph - N/A   Haze
7:10 PM 82.4 °F 89.5 °F 75.2 °F 79% 29.59 in 1.9 mi North 6.9 mph - N/A   Haze
7:40 PM 82.4 °F 89.5 °F 75.2 °F 79% 29.62 in 1.9 mi NNW 9.2 mph - N/A   Haze
8:10 PM 82.4 °F 89.5 °F 75.2 °F 79% 29.62 in 1.9 mi NNW 5.8 mph - N/A   Haze
8:30 PM 81 °F - 76 °F 81% 29.65 in 1 mi Calm Calm - -   Haze
8:40 PM 82.4 °F 89.5 °F 75.2 °F 79% 29.65 in 1.9 mi WNW 5.8 mph - N/A   Haze
9:10 PM 82.4 °F 89.5 °F 75.2 °F 79% 29.65 in 1.9 mi NW 5.8 mph - N/A   Haze
9:40 PM 82.4 °F 90.9 °F 77.0 °F 84% 29.68 in 1.9 mi NW 4.6 mph - N/A   Haze
10:10 PM 82.4 °F 90.9 °F 77.0 °F 84% 29.68 in 1.9 mi WNW 5.8 mph - N/A   Haze
10:40 PM 82.4 °F 90.9 °F 77.0 °F 84% 29.68 in 1.9 mi NW 3.5 mph - N/A   Haze
11:10 PM 82.4 °F 90.9 °F 77.0 °F 84% 29.68 in 1.9 mi WNW 3.5 mph - N/A   Haze
11:30 PM 81 °F - 77 °F 83% 29.68 in 1 mi NW 4.6 mph - -   Haze
11:40 PM 82.4 °F 90.9 °F 77.0 °F 84% 29.65 in 1.9 mi WNW 4.6 mph - N/A   Haze